Time,B instrument,Bx,By,Bz,sigma B,Ion instrument,Status,Tp_par,Tp_perp,carrot,r_sun,clat,clong,earth_he_angle,n_p,vp_x,vp_y,vp_z,vth_p_par,vth_p_perp
1980-06-25 00:00:35,1,-13.1,0.861538,-7.43077,0.949431,1,1,89782.5,82501.1,1696,0.59313023,6.5309,240.12369,97.565094,14.0234,375.572,-26.0637,-3.52338,38.4994,36.9052
1980-06-25 00:01:16,1,-12.2071,1.77857,-9.40714,1.1917,1,1,93711.9,77200.8,1696,0.59313852,6.5308275,240.12045,97.565765,14.4181,385.772,-21.5591,-13.8032,39.3328,35.7
1980-06-25 00:01:56,1,-13.8143,0.564286,-6.22857,1.89507,1,1,84232.8,79873.5,1696,0.59313858,6.5308275,240.11264,97.565765,14.2063,377.007,-33.5549,-3.73686,37.2905,36.3128
1980-06-25 00:02:37,1,-14.1769,1.87692,-5.77692,1.47828,1,1,82499.2,83461.3,1696,0.59314686,6.530755,240.1055,97.566437,14.8136,375.133,-27.415,-0.657311,36.9048,37.1194
1980-06-25 00:03:17,1,-14.4429,2.32143,-5.0,0.574323,1,1,78491.3,80115.1,1696,0.59315521,6.5306826,240.10226,97.567108,14.4506,374.113,-16.5473,1.58788,35.9972,36.3676
1980-06-25 00:03:58,1,-14.8917,2.125,-4.2,0.754523,1,1,64219.8,85546.2,1696,0.59315521,6.5306826,240.09445,97.567108,13.7714,369.573,-26.3869,4.91501,32.5606,37.5801
1980-06-25 00:04:38,1,-12.8308,6.57692,-6.33846,1.81196,1,1,70199.0,78449.0,1696,0.59316355,6.5306101,240.09122,97.56778,14.2005,371.778,-12.9717,1.51424,34.0427,35.9875
1980-06-25 00:05:19,1,-12.0231,6.93077,-7.8,0.63311,1,1,73410.5,76453.1,1696,0.59317189,6.5305386,240.08408,97.568451,12.7383,380.707,-7.9998,-8.01793,34.8126,35.5267
1980-06-25 00:05:59,1,-12.4133,7.00667,-6.00667,1.28416,1,1,65994.2,78744.9,1696,0.59317189,6.5305376,240.08017,97.568451,13.2337,384.489,-1.93978,-7.48446,33.0073,36.0553
1980-06-25 00:06:40,1,-13.0214,5.54286,-5.72857,0.884244,1,1,69894.4,77765.3,1696,0.59318024,6.5304661,240.07303,97.569122,13.9241,377.541,-7.3593,-2.58141,33.9687,35.8303
1980-06-25 00:07:20,1,-12.7385,3.75385,-7.02308,2.57542,1,1,80375.1,77909.5,1696,0.59318858,6.5303936,240.06589,97.569794,14.2285,377.244,-18.9437,-4.17958,36.4266,35.8635
1980-06-25 00:08:01,1,-13.1714,4.57857,-6.78571,1.00603,1,1,66704.2,84636.1,1696,0.59319693,6.5303211,240.06265,97.570465,13.97,378.297,-11.5384,-10.8031,33.1844,37.3797
1980-06-25 00:08:41,-1,nan,nan,nan,nan,1,4,nan,nan,1696,0.59319693,6.5303211,240.05484,97.570465,nan,nan,nan,nan,nan,nan
1980-06-25 00:09:22,1,-11.8571,4.17857,-8.87857,1.55061,1,1,79435.4,78058.4,1696,0.59320527,6.5302486,240.05161,97.571136,13.1099,384.865,-9.64112,-17.6619,36.213,35.8978
1980-06-25 00:10:02,1,-11.9786,3.78571,-8.21429,0.488281,1,1,68476.7,86158.1,1696,0.59321362,6.5301771,240.04446,97.571808,12.4457,374.739,-9.79738,-10.134,33.6224,37.7143
1980-06-25 00:10:43,1,-11.2462,2.30769,-9.99231,1.07456,1,1,69875.0,98739.8,1696,0.59321362,6.5301771,240.03665,97.571808,13.6226,378.127,-19.8146,-17.9703,33.964,40.3742
1980-06-25 00:12:03,1,-11.16,1.24,-10.42,0.492341,1,1,70573.0,80776.6,1697,0.59325004,6.5433674,239.96494,97.51181,13.2873,382.879,-23.8592,-22.9624,34.1332,36.5175
1980-06-25 00:13:56,1,-11.96,1.36667,-9.42,0.992416,1,1,74784.9,77936.6,1696,0.59323031,6.5300322,240.01065,97.573151,13.7106,375.969,-22.5103,-14.3178,35.137,35.8698
1980-06-25 00:13:57,1,-11.9786,1.39286,-9.4,1.01675,1,1,79832.3,80325.4,1696,0.59323865,6.5299597,240.01132,97.573822,14.077,377.111,-25.6727,-14.3146,36.3034,36.4153
1980-06-25 00:14:04,1,-11.8467,1.74,-9.67333,0.833573,1,1,60989.4,74079.0,1696,0.593247,6.5298872,240.01199,97.574493,12.7104,377.832,-27.5235,-17.4163,31.7311,34.9708
1980-06-25 00:14:46,1,-11.1846,0.753846,-10.8077,0.864624,1,1,63112.8,74103.8,1696,0.593247,6.5298872,240.00418,97.574493,11.7956,380.604,-24.1233,-19.1487,32.2787,34.9766
1980-06-25 00:15:26,1,-10.7214,-0.207143,-10.9857,0.682956,1,1,68358.7,76782.0,1696,0.59325534,6.5298157,239.99704,97.575165,12.691,380.665,-25.6857,-17.763,33.5935,35.6031
1980-06-25 00:16:07,1,-11.6846,0.792308,-9.91538,0.374482,1,1,68349.9,81112.9,1696,0.59326363,6.5297432,239.9938,97.575836,13.9468,377.424,-27.302,-14.0666,33.5913,36.5934
1980-06-25 00:16:47,1,-12.1714,0.642857,-10.0214,0.548142,1,1,60376.7,81147.0,1696,0.59326369,6.5297432,239.98599,97.575836,13.131,382.55,-25.9778,-14.6278,31.5713,36.6011
1980-06-25 00:17:28,1,-12.6923,0.746154,-9.15385,0.909516,1,1,61571.5,74579.0,1696,0.59327197,6.5296707,239.98276,97.576508,11.8788,378.185,-19.5073,-13.2015,31.8821,35.0886
1980-06-25 00:18:08,1,-12.5692,1.46923,-8.89231,2.50299,1,1,53389.1,73089.0,1696,0.59328032,6.5295982,239.97562,97.577179,12.028,374.722,-15.251,-7.53021,29.6882,34.7363
1980-06-25 00:18:49,1,-6.17143,-0.964286,-13.4857,3.07127,1,1,61361.1,69395.6,1696,0.59328032,6.5295982,239.9678,97.577179,12.1229,410.653,-29.6425,-31.5843,31.8277,33.8473
1980-06-25 00:19:29,-1,nan,nan,nan,nan,1,4,nan,nan,1696,0.59328866,6.5295258,239.96457,97.57785,nan,nan,nan,nan,nan,nan
1980-06-25 00:20:10,1,-12.1769,4.70769,-8.36154,0.923333,1,1,80881.6,78057.8,1696,0.593297,6.5294542,239.95744,97.578537,14.452,378.273,2.44332,-6.49268,36.5412,35.8977
1980-06-25 00:20:50,1,-12.0692,5.82308,-7.62308,1.18561,1,1,70324.0,74993.4,1696,0.593297,6.5294533,239.95354,97.578537,14.9899,381.049,8.24341,-6.57937,34.0729,35.186
1980-06-25 00:21:31,1,-12.7846,5.46154,-7.33846,1.23533,1,1,69773.8,74315.8,1696,0.59330535,6.5293818,239.9464,97.579208,13.0124,376.35,2.4247,-4.48799,33.9394,35.0266
1980-06-25 00:22:11,1,-13.0769,6.99231,-6.32308,1.49243,1,1,61789.6,71973.3,1696,0.59331369,6.5293093,239.93925,97.57988,14.0729,380.319,0.669256,2.85454,31.9386,34.4702
1980-06-25 00:22:52,1,-12.3143,7.86429,-6.57143,0.936477,1,1,62979.3,71180.3,1696,0.59331369,6.5293093,239.93535,97.57988,13.316,380.267,3.60993,0.0087812,32.2446,34.2798
1980-06-25 00:23:32,1,-12.9231,7.00769,-6.64615,0.591258,1,1,66060.7,75250.6,1696,0.59332204,6.5292368,239.92821,97.580551,14.1476,378.749,1.08557,-2.11414,33.024,35.2463
1980-06-25 00:24:13,1,-13.3714,5.30714,-7.18571,1.12995,1,1,61468.9,73264.0,1696,0.59333038,6.5291643,239.92497,97.581223,13.8504,378.435,-1.14331,-5.50862,31.8556,34.7779
1980-06-25 00:24:53,1,-13.4214,3.35714,-7.66429,0.898014,1,1,58410.0,72898.5,1696,0.59333038,6.5291643,239.91716,97.581223,13.3826,376.628,-7.86618,-5.57284,31.0528,34.691
1980-06-25 00:25:34,1,-13.4308,2.80769,-7.58462,0.860851,1,1,68944.8,74562.4,1696,0.59333873,6.5290928,239.91002,97.581894,14.3502,375.789,-15.0899,-4.97817,33.7372,35.0847
1980-06-25 00:26:14,1,-13.6,4.50769,-6.86154,1.3956,1,1,59360.3,74393.1,1696,0.59334707,6.5290203,239.90678,97.582565,13.7252,375.317,-19.5644,-2.33714,31.3044,35.0449
1980-06-25 00:26:55,1,-13.6692,5.70769,-6.1,0.996028,1,1,64082.0,76359.3,1696,0.59334707,6.5290203,239.89897,97.582565,13.8384,375.697,-3.33194,2.65406,32.5256,35.5049
1980-06-25 00:27:35,1,-13.7,6.03077,-6.37692,0.70114,1,1,62134.5,72033.1,1696,0.59335542,6.5289478,239.89574,97.583237,13.6961,376.428,-1.41046,-1.29764,32.0276,34.4845
1980-06-25 00:28:16,1,-12.8929,6.12857,-7.34286,1.30855,1,1,63956.6,71109.3,1696,0.59336376,6.5288754,239.8886,97.583908,14.7568,380.392,2.56122,-3.87991,32.4938,34.2627
1980-06-25 00:28:56,1,-12.8077,6.55385,-7.42308,0.900624,1,1,60882.7,77598.0,1696,0.59336376,6.5288754,239.88469,97.583908,14.9479,377.833,-5.23025,-3.11765,31.7033,35.7918
1980-06-25 00:29:37,1,-13.3,5.85,-7.32857,0.550556,1,1,67299.9,75200.2,1696,0.59337211,6.5288029,239.87755,97.584579,14.2066,378.7,-6.4841,-1.21784,33.3323,35.2345
1980-06-25 00:30:17,1,-13.5071,5.01429,-7.24286,1.0128,1,1,60640.5,69843.9,1696,0.59338045,6.5287313,239.87041,97.585251,13.4762,376.965,-12.4451,-4.03935,31.6402,33.9564
1980-06-25 00:30:58,-1,nan,nan,nan,nan,1,-3,nan,nan,1696,0.59338045,6.5287304,239.8665,97.585251,nan,375.964,-6.23057,-0.0729202,nan,nan
1980-06-25 00:33:40,2,-9.43,4.085,-9.535,1.11862,1,1,79723.1,80416.2,1696,0.59340543,6.5285139,239.84117,97.587265,13.927,385.952,-7.43266,-15.2554,36.2786,36.4359
1980-06-25 00:34:20,2,-9.924,2.33,-10.398,0.623089,1,1,61480.2,76176.8,1696,0.59341377,6.5284414,239.83794,97.587936,13.0965,381.55,-11.5887,-18.1231,31.8585,35.4625
1980-06-25 00:35:01,2,-10.35,1.0475,-10.4875,0.669393,1,1,49739.4,75887.5,1696,0.59342211,6.5283699,239.8308,97.588608,12.8394,379.614,-22.8859,-16.0524,28.6555,35.3951
1980-06-25 00:35:41,2,-10.1525,3.535,-10.0025,0.336768,1,1,54502.7,72273.4,1696,0.59342211,6.5283699,239.82689,97.588608,13.3913,381.188,-14.7639,-19.6827,29.9962,34.542
1980-06-25 00:36:22,2,-10.15,3.6225,-10.005,0.790692,1,1,53412.3,72438.6,1696,0.59343046,6.5282974,239.81975,97.589279,13.1348,382.849,-12.9898,-21.2902,29.6947,34.5814
1980-06-25 00:37:02,1,-10.3357,3.89286,-12.7143,2.32254,1,1,59119.0,70444.0,1696,0.5934388,6.5282249,239.81261,97.589951,13.7954,392.504,-14.0755,-28.1637,31.2407,34.102
1980-06-25 00:37:43,1,-10.1071,6.16429,-12.1286,1.18954,1,1,57393.3,75149.5,1696,0.5934388,6.5282249,239.8087,97.589951,13.6786,390.966,-7.04832,-29.1898,30.7814,35.2226
1980-06-25 00:38:23,1,-11.5786,5.86429,-11.1357,0.818878,1,1,52942.7,62330.9,1696,0.59344715,6.5281525,239.80156,97.590622,11.9292,386.465,-5.90024,-20.567,29.5638,32.0782
1980-06-25 00:39:04,1,-11.4714,5.77857,-10.9714,1.24386,1,1,60296.9,66001.2,1696,0.59345549,6.52808,239.79832,97.591293,12.5167,387.39,-7.17474,-23.2909,31.5504,33.0091
1980-06-25 00:39:44,1,-10.8571,6.98571,-11.3571,0.726327,1,1,58479.0,70549.5,1696,0.59345549,6.52808,239.79051,97.591293,12.1607,392.842,-0.917637,-26.7993,31.0712,34.1275
1980-06-25 00:40:25,1,-10.0286,8.92143,-11.6143,0.691235,1,1,52022.8,67261.4,1696,0.59346384,6.5280085,239.78729,97.59198,11.3525,390.254,-1.21773,-18.804,29.3059,33.3227
1980-06-25 00:41:05,1,-10.4643,9.42143,-10.8143,0.69554,1,1,47407.0,68385.0,1696,0.59347218,6.527936,239.78015,97.592651,9.76681,389.287,-7.8423,-8.67556,27.9756,33.5999
1980-06-25 00:41:46,1,-10.8571,9.7,-9.63571,1.16516,1,1,45056.7,69403.2,1696,0.59347218,6.527936,239.77234,97.592651,11.8486,389.802,5.92064,-11.0112,27.2733,33.8491
1980-06-25 00:42:26,1,-10.0929,9.78571,-9.87143,0.737515,1,1,59692.3,71068.0,1696,0.59348053,6.5278635,239.7691,97.593323,12.5369,391.928,4.63715,-16.309,31.3919,34.2527
1980-06-25 00:43:07,1,-10.8,9.79286,-9.41429,1.31872,1,1,60987.2,77900.8,1696,0.59348887,6.527791,239.76196,97.593994,11.9107,389.675,4.06427,-11.4496,31.7305,35.8615
1980-06-25 00:43:47,1,-11.0067,7.12,-11.7733,0.732242,1,1,111089.0,81001.6,1696,0.59348887,6.527791,239.75806,97.593994,11.8947,392.434,-1.28178,-10.3729,42.8246,36.5683
1980-06-25 00:44:28,1,-11.5643,7.67857,-10.4857,0.630921,1,1,60798.1,72747.3,1696,0.59349722,6.5277185,239.75092,97.594666,12.2371,383.977,-0.715268,-11.7823,31.6813,34.655
1980-06-25 00:45:08,1,-11.6214,8.19286,-10.8643,0.64945,1,1,45808.7,61875.0,1696,0.59350556,6.527647,239.74377,97.595337,10.0419,391.163,-4.61233,-8.09046,27.5,31.9607
1980-06-25 00:45:49,1,-12.0846,8.42308,-9.67692,0.657681,1,1,55756.9,64624.9,1696,0.59350556,6.527647,239.73987,97.595337,11.7117,389.244,3.30691,-10.5268,30.3394,32.6631
1980-06-25 00:46:29,1,-12.2286,9.48571,-8.47857,0.960256,1,1,57160.2,67668.8,1696,0.59351391,6.5275745,239.73273,97.596008,10.9426,384.563,2.05253,-3.91519,30.7188,33.4235
1980-06-25 00:47:10,1,-11.9462,8.63846,-9.50769,0.759165,1,1,55254.3,71014.1,1696,0.59352219,6.5275021,239.72949,97.59668,11.7633,384.144,2.97118,-9.79296,30.2024,34.2397
1980-06-25 00:47:50,1,-11.3154,8.52308,-10.3462,0.569231,1,1,54306.8,65923.3,1696,0.59352219,6.5275021,239.72168,97.59668,12.1392,386.553,0.140725,-13.4003,29.9423,32.9896
1980-06-25 00:48:31,1,-11.8462,6.67692,-10.2846,1.46897,1,1,65838.1,66212.6,1696,0.59353054,6.5274296,239.71454,97.597351,12.0353,385.549,-1.69603,-12.1755,32.9683,33.0619
1980-06-25 00:49:11,1,-12.4733,6.01333,-9.30667,2.26003,1,1,77122.0,76343.0,1696,0.59353888,6.5273571,239.7113,97.598022,11.8847,379.882,-14.5629,-18.2465,35.6818,35.5012
1980-06-25 00:49:52,1,-13.3143,8.41429,-6.95,1.23662,1,1,75266.6,80532.3,1696,0.59353888,6.5273571,239.70349,97.598022,13.004,380.063,11.1098,0.616613,35.25,36.4622
1980-06-25 00:50:32,1,-12.9385,7.26154,-9.2,0.833045,1,1,46924.9,62883.2,1696,0.59354722,6.5272856,239.70026,97.598694,10.2686,382.553,-1.54915,-14.0156,27.833,32.22
1980-06-25 00:51:13,1,-13.2929,5.87143,-9.02143,0.787466,1,1,58921.4,75344.3,1696,0.59355557,6.5272131,239.69312,97.599365,12.463,380.054,-5.63359,-10.8593,31.1885,35.2682
1980-06-25 00:51:53,1,-12.8286,7.36429,-8.85,0.519321,1,1,84503.5,81069.5,1696,0.59355557,6.5272131,239.68921,97.599365,12.2822,383.47,-3.25173,-10.4148,37.3504,36.5836
1980-06-25 00:52:34,1,-11.6615,8.90769,-8.07692,1.51817,1,1,65279.0,90126.2,1696,0.59356391,6.5271406,239.68207,97.600037,12.4347,382.274,13.7928,-2.04531,32.828,38.573
1980-06-25 00:53:14,1,-11.6769,8.78462,-9.66923,0.584919,1,1,54307.7,69215.8,1696,0.59357226,6.5270681,239.67493,97.600708,12.5235,387.749,-0.309789,-13.391,29.9426,33.8034
1980-06-25 00:53:55,1,-12.8077,6.94615,-9.73846,0.811092,1,1,53456.7,66334.0,1696,0.59357226,6.5270681,239.67102,97.600708,12.1209,385.045,-3.19617,-14.9866,29.707,33.0922
1980-06-25 00:54:35,1,-12.86,7.6,-9.02667,1.47208,1,1,47831.5,67964.0,1696,0.5935806,6.5269957,239.66388,97.601379,12.1534,379.213,-3.73812,-10.4752,28.1006,33.4963
1980-06-25 00:55:16,1,-12.8714,7.55,-8.65714,0.969457,1,1,48462.1,67405.7,1696,0.59358895,6.5269241,239.66064,97.602051,12.3245,383.578,-2.48135,-11.6118,28.2852,33.3585
1980-06-25 00:55:56,1,-12.2643,8.08571,-9.11429,1.15469,1,1,54198.4,71605.3,1696,0.59358895,6.5269232,239.65283,97.602051,11.0728,384.5,-0.0430968,-13.3143,29.9124,34.3819
1980-06-25 00:56:37,1,-9.92143,7.47857,-10.1,1.99441,1,1,77059.7,106264.0,1696,0.59359729,6.5268517,239.64569,97.602722,15.5237,389.848,9.24471,-20.3649,35.6674,41.8843
1980-06-25 00:57:17,1,-12.8867,6.80667,-7.60667,0.899481,1,1,75817.5,94807.3,1696,0.59360564,6.5267792,239.64246,97.603394,13.5131,368.695,-3.97686,-8.70707,35.3788,39.562
1980-06-25 00:57:58,1,-10.5357,7.11429,-10.3571,2.50661,1,1,62155.1,114588.0,1696,0.59360564,6.5267792,239.63464,97.603394,15.105,370.584,2.9929,-9.39092,32.0329,43.4938
1980-06-25 00:58:38,1,-9.50714,7.15714,-12.2071,0.409953,1,1,62139.9,73910.5,1696,0.59361398,6.5267067,239.63141,97.604065,13.4972,391.032,-4.74238,-25.3762,32.029,34.931
1980-06-25 00:59:19,1,-9.59286,8.31429,-11.55,1.24043,1,1,63900.6,71151.3,1696,0.59362233,6.5266342,239.62427,97.604736,11.3216,392.807,-0.201334,-28.5694,32.4796,34.2728
1980-06-25 00:59:59,1,-12.0071,7.65,-10.1143,0.955489,1,1,51746.4,69645.3,1696,0.59362233,6.5266342,239.61646,97.604736,12.8248,381.619,-7.54674,-16.9234,29.2279,33.9081
1980-06-25 01:00:40,1,-12.1923,7.34615,-10.2615,0.556936,1,1,56874.3,77357.5,1696,0.59363067,6.5265627,239.61324,97.605423,12.6763,381.332,-3.61294,-16.4984,30.6419,35.7363
1980-06-25 01:01:20,1,-12.0857,7.12143,-10.3429,0.590097,1,1,58320.1,65937.2,1696,0.59363896,6.5264902,239.60608,97.606079,11.8664,384.599,-6.63102,-20.5297,31.0289,32.9931
1980-06-25 01:02:01,1,-12.1071,6.97857,-10.5143,0.733387,1,1,55572.3,75818.8,1696,0.5936473,6.5264177,239.60284,97.60675,12.0206,385.606,-7.19975,-20.9498,30.2891,35.3791
1980-06-25 01:02:41,1,-11.7857,6.81429,-10.4857,1.02509,1,1,49452.6,70895.0,1696,0.5936473,6.5264177,239.59503,97.60675,11.5611,383.961,-9.3246,-17.5661,28.5728,34.211
1980-06-25 01:03:22,1,-11.3571,6.84286,-9.8,1.21092,1,1,65954.0,81509.1,1696,0.59365565,6.5263453,239.5918,97.607422,12.3079,383.179,-2.98905,-18.1713,32.9973,36.6827
1980-06-25 01:04:02,1,-11.3214,6.25714,-10.2286,1.53219,1,1,70394.1,89814.3,1696,0.59366399,6.5262728,239.58466,97.608093,13.875,381.099,-8.2338,-22.255,34.0899,38.5062
1980-06-25 01:04:43,1,-11.0769,8.62308,-9.31538,0.731862,1,1,76416.1,72401.0,1696,0.59366399,6.5262728,239.57684,97.608093,12.8595,382.221,0.406704,-19.4093,35.5182,34.5725
1980-06-25 01:05:23,1,-11.2067,9.29333,-8.76667,0.611664,1,1,61357.6,72702.0,1696,0.59367234,6.5262003,239.57361,97.608765,12.2492,384.503,3.04769,-16.1975,31.8267,34.6442
1980-06-25 01:06:04,1,-12.7857,6.94286,-8.62857,0.872599,1,1,60051.2,72719.2,1696,0.59368068,6.5261278,239.56647,97.609436,12.4235,378.559,-5.02146,-14.9755,31.4861,34.6483
1980-06-25 01:06:44,1,-12.6077,6.77692,-9.08462,0.715178,1,1,62000.4,78934.9,1696,0.59368068,6.5261278,239.56256,97.609436,12.7154,379.268,-2.38538,-16.0881,31.993,36.0988
1980-06-25 01:07:25,1,-12.0786,7.21429,-9.22857,0.581211,1,1,66326.7,70943.2,1696,0.59368902,6.5260563,239.55542,97.610107,12.7519,379.943,-4.84077,-20.7937,33.0904,34.2226
1980-06-25 01:08:05,1,-11.3286,7.1,-9.82857,0.464231,1,1,73506.0,67451.5,1696,0.59369731,6.5259838,239.54828,97.610779,12.3204,382.33,-5.50606,-22.6075,34.8353,33.3698
1980-06-25 01:08:46,1,-9.37143,7.18571,-11.7857,0.611956,1,1,72432.7,82420.0,1696,0.59369731,6.5259838,239.54437,97.610779,13.1057,386.291,-3.08297,-27.3927,34.58,36.8871
1980-06-25 01:09:26,1,-8.18571,7.38571,-11.8071,1.05775,1,1,88464.0,81953.7,1696,0.59370565,6.5259113,239.53723,97.61145,12.8219,389.042,-6.19692,-28.6409,38.2156,36.7826
1980-06-25 01:10:07,1,-11.1692,7.95385,-8.99231,1.56178,1,1,72907.6,82765.6,1696,0.593714,6.5258389,239.534,97.612122,12.5027,380.215,-0.603712,-19.6552,34.6932,36.9643
1980-06-25 01:10:47,1,-8.22308,7.79231,-12.0846,0.620746,1,1,68626.1,74928.5,1696,0.593714,6.5258389,239.52618,97.612122,12.5986,392.218,-3.77503,-30.0911,33.6591,35.1707
1980-06-25 01:11:28,1,-7.55385,8.18462,-12.6923,0.788302,1,1,63187.3,68722.7,1696,0.59372234,6.5257664,239.51903,97.612778,12.2629,390.834,-5.36921,-30.6555,32.2978,33.6828
1980-06-25 01:12:08,1,-7.9,8.01429,-12.1071,0.557189,1,1,68725.0,75594.5,1696,0.59373069,6.5256939,239.51579,97.613449,12.3934,386.186,-2.74277,-26.2398,33.6834,35.3267
1980-06-25 01:12:49,1,-8.87692,7.63846,-11.9308,0.537912,1,1,65591.2,81321.4,1696,0.59373069,6.5256939,239.50798,97.613449,12.5759,390.639,-3.14621,-28.9844,32.9064,36.6404
1980-06-25 01:13:29,1,-10.8071,7.67143,-9.96429,1.10809,1,1,83983.1,84935.1,1696,0.59373903,6.5256214,239.50475,97.61412,13.0666,385.727,-2.79281,-28.1451,37.2352,37.4457
1980-06-25 01:14:10,1,-10.7385,7.80769,-9.96923,0.930165,1,1,74054.3,83764.9,1696,0.59374732,6.5255499,239.4976,97.614792,13.1111,385.35,1.15432,-24.2869,34.965,37.1868
1980-06-25 01:14:50,1,-7.38571,5.72143,-13.5357,2.03563,1,1,71105.6,81782.8,1696,0.59374738,6.5255499,239.4937,97.614792,12.7484,400.424,-12.2759,-40.7369,34.2618,36.7442
1980-06-25 01:15:31,1,-12.74,9.71333,-6.78667,0.360617,1,1,57476.9,68641.6,1696,0.59375566,6.5254774,239.48656,97.615463,12.3678,385.709,3.52378,-15.5618,30.8038,33.6629
1980-06-25 01:16:11,1,-12.6077,9.5,-7.12308,0.566522,1,1,66452.2,74874.7,1696,0.59376401,6.5254049,239.47942,97.616135,12.8736,387.836,1.06628,-19.4401,33.1217,35.1581
1980-06-25 01:16:52,1,-12.6643,9.82143,-6.4,0.708908,1,1,59750.7,67611.9,1696,0.59376401,6.5254049,239.47551,97.616135,11.7671,385.542,1.66164,-16.5306,31.4072,33.4095
1980-06-25 01:17:32,1,-12.2692,10.1846,-6.23846,0.329963,1,1,60516.9,60446.1,1696,0.59377235,6.5253325,239.46837,97.616806,12.2912,388.363,4.15298,-18.3705,31.608,31.5894
1980-06-25 01:18:13,1,-11.7538,9.33077,-8.56923,0.803248,1,1,84425.2,73871.4,1696,0.5937807,6.52526,239.46513,97.617477,12.7839,389.214,3.52749,-18.9636,37.3331,34.9217
1980-06-25 01:18:53,1,-11.7571,10.0429,-8.07143,0.467298,1,1,70968.3,66896.1,1696,0.5937807,6.52526,239.45732,97.617477,13.1061,387.393,4.9687,-18.7812,34.2287,33.2322
1980-06-25 01:19:34,1,-11.6231,9.93846,-8.26923,0.277563,1,1,80058.4,73555.1,1696,0.59378904,6.5251875,239.45018,97.618149,12.9967,389.178,3.9265,-19.2282,36.3548,34.8469
1980-06-25 01:20:14,1,-11.85,9.48571,-8.37857,0.335486,1,1,77457.1,66995.2,1696,0.59379739,6.525116,239.44695,97.61882,12.5489,387.382,4.2503,-20.0753,35.7593,33.2567
1980-06-25 01:20:55,1,-11.8231,9.10769,-8.99231,0.579226,1,1,65271.5,72931.4,1696,0.59379739,6.525115,239.43913,97.61882,12.604,388.355,1.20426,-20.3747,32.8261,34.6989
1980-06-25 01:21:35,1,-12.1214,8.62143,-9.37143,0.335486,1,1,59522.1,57936.6,1696,0.59380567,6.5250435,239.43588,97.619476,11.1141,389.223,-1.35955,-20.4463,31.3471,30.9268
1980-06-25 01:22:16,1,-11.4429,8.52143,-10.25,0.795202,1,1,76932.9,70607.4,1696,0.59381402,6.524971,239.42874,97.620148,13.1145,389.642,2.8162,-20.9821,35.638,34.1415
1980-06-25 01:22:56,1,-11.7571,8.67143,-10.1429,0.306727,1,1,54659.9,58521.0,1696,0.59381402,6.524971,239.42093,97.620148,11.2247,388.305,-0.174887,-20.9197,30.0395,31.0823
1980-06-25 01:23:37,1,-10.9385,7.85385,-11.0692,1.86817,1,1,64549.7,61220.7,1696,0.59382236,6.5248985,239.41769,97.620819,12.0675,385.707,0.528995,-21.8499,32.6441,31.7912
1980-06-25 01:24:17,1,-10.35,8.4,-11.2786,1.37318,1,1,61065.0,65165.3,1696,0.5938307,6.524826,239.41055,97.62149,11.2626,392.195,-8.20558,-32.8561,31.7508,32.7994
1980-06-25 01:24:58,1,-11.0071,4.95,-12.2786,1.01938,1,1,79246.6,72773.5,1696,0.5938307,6.524826,239.40665,97.62149,12.8476,392.646,-17.0287,-32.4653,36.17,34.6613
1980-06-25 01:25:38,1,-10.1714,5.05714,-12.8857,0.880746,1,1,75098.1,62360.4,1696,0.59383905,6.5247536,239.39951,97.622162,13.1251,395.406,-15.0273,-32.4745,35.2105,32.0858
1980-06-25 01:26:19,1,-10.2071,6.13571,-12.4571,0.612706,1,1,71969.9,62190.8,1696,0.59384739,6.5246811,239.39627,97.622833,11.7002,395.229,-12.2273,-31.797,34.4694,32.0421
1980-06-25 01:26:59,1,-10.7867,7.87333,-11.4933,0.518716,1,1,68339.6,59404.4,1696,0.59384739,6.5246811,239.38846,97.622833,11.4579,396.049,-2.69093,-28.1437,33.5888,31.3161
1980-06-25 01:27:40,1,-11.1077,7.51538,-11.1154,1.60966,1,1,64821.3,68850.8,1696,0.59385574,6.5246096,239.38132,97.623505,11.338,397.843,-8.32575,-37.3154,32.7127,33.7142
1980-06-25 01:28:20,1,-11.7,7.21429,-11.0857,0.395897,1,1,57772.3,62526.1,1696,0.59386402,6.5245371,239.37808,97.624176,10.9573,390.767,-5.41228,-29.8688,30.8829,32.1284
1980-06-25 01:29:01,1,-11.5846,7.95385,-9.98462,1.76518,1,1,65707.5,70309.7,1696,0.59387237,6.5244646,239.37094,97.624847,11.7613,396.408,-1.5017,-27.6564,32.9356,34.0695
1980-06-25 01:29:41,1,-11.6929,8.79286,-8.57857,0.778375,1,1,65033.5,66183.4,1696,0.59387237,6.5244646,239.36703,97.624847,13.1874,396.204,-3.78133,-30.1127,32.7662,33.0546
1980-06-25 01:30:22,1,-11.4571,8.95,-8.97857,0.847385,1,1,78307.8,73133.2,1696,0.59388071,6.5243921,239.35989,97.625519,12.911,394.498,-2.80336,-32.4236,35.9551,34.7468
1980-06-25 01:31:02,1,-11.4714,8.61429,-8.77143,0.413546,1,1,68041.5,70647.1,1696,0.59388906,6.5243196,239.35274,97.626175,12.5187,393.774,-4.69174,-33.5496,33.5154,34.1511
1980-06-25 01:31:43,1,-11.4571,8.51429,-8.94286,0.312332,1,1,82712.8,78096.1,1696,0.59388906,6.5243196,239.34883,97.626175,13.7645,396.077,-1.17454,-28.951,36.9525,35.9065
1980-06-25 01:38:31,-1,nan,nan,nan,nan,1,3,nan,nan,1696,0.59394741,6.5238132,239.29103,97.630875,nan,410.584,-55.6263,-43.155,nan,nan
1980-06-25 01:39:12,1,-11.42,9.74,-7.86,0.960417,1,1,51630.1,64606.9,1696,0.59395576,6.5237408,239.28389,97.631546,13.4417,402.416,2.06139,-35.2713,29.1951,32.6586
1980-06-25 01:39:52,1,-11.5286,9.73571,-7.49286,0.842191,1,1,48782.1,59286.5,1696,0.59395576,6.5237408,239.27998,97.631546,12.2352,406.03,7.6641,-37.7653,28.3784,31.285
1980-06-25 01:40:33,1,-11.82,9.54,-7.01333,1.70171,1,1,46727.2,59334.8,1696,0.5939641,6.5236692,239.27284,97.632217,11.816,401.562,3.18342,-33.9648,27.7743,31.2977
1980-06-25 01:41:10,1,-13.0714,9.48571,-5.37143,0.898184,1,1,46415.4,61040.4,1696,0.59397238,6.5235968,239.26959,97.632874,13.1602,397.112,6.71848,-21.782,27.6815,31.7444
1980-06-25 01:41:50,1,-12.7357,9.41429,-5.91429,0.826629,1,1,51343.2,62717.0,1696,0.59397238,6.5235968,239.26178,97.632874,12.5753,394.657,3.30004,-19.7153,29.1138,32.1774
1980-06-25 01:42:31,1,-13.2643,9.01429,-5.0,0.395446,1,1,45568.1,59973.3,1696,0.59398073,6.5235243,239.25464,97.633545,13.0134,395.148,1.98981,-23.2764,27.4276,31.4657
1980-06-25 01:43:11,1,-13.7667,8.78,-4.46,0.439191,1,1,51223.0,65273.9,1696,0.59398907,6.5234518,239.2514,97.634216,13.5889,392.641,2.19671,-19.7967,29.0797,32.8267
1980-06-25 01:43:52,1,-13.8615,8.86923,-5.0,0.274347,1,1,48628.9,61058.6,1696,0.59398907,6.5234518,239.24359,97.634216,13.2132,392.467,0.823986,-22.6754,28.3338,31.7491